Content
SEND FEEDBACK

Daily
Averages
Monthly
Summary
United States of America

ROCKFISH, VIRGINIA


Home > North America > United States > Virginia
Elevation: 15 meters     Latitude: 37 48N     Longitude: 078 45W

WEATHER
 
SELECT A DAY
Number of Records: 209,761;   Date Range: 1/1/95 - 10/21/14
 
SHARE

PRINT THIS DATA

[ ← Previous Day ]
WEATHER ALMANAC - 21 MARCH, 2014
[ Next Day → ]
[ °F ]   °C
Weather ElementAverageHighLow
Temperature7.3 °C15.2 °C (2:58 pm)1.6 °C (1:58 am)
Dewpoint0 °C2.8 °C (5:58 pm)-3.1 °C (1:58 am)
Humidity62.6 %92 % (11:58 pm)33 % (2:58 pm)
Barometer1018.3 hPa1020 hPa (9:58 am)1017.3 hPa (3:58 pm)
Wind Speed3.4 km/h9.3 km/h (11:58 am)
Weather ElementAverage
Visibility16.1 km
Wind DirectionENE (59.1 °)

Weather ElementTotal
Precipitation---
Heating Degree Days9.9 (Base 18.3)
Averaged from 23 records on 21 March, 2014
WEATHER CONDITIONS BREAKOUT
WIND DIRECTION BREAKOUT
WEATHER BY HOUR - 21 MARCH, 2014
[ °F ]   °C
Local TimeTemperatureDewpointHumidityBarometerVisibilityWind DirectionWind SpeedGust SpeedPrecipitationEventsConditions
1:58 AM1.6 °C-3.1 °C71 %1017.6 hPa16.1 kmCalmScattered Clouds
2:58 AM1.9 °C-2.4 °C73 %1017.6 hPa16.1 kmCalmPartly Cloudy
3:58 AM1.7 °C-3 °C71 %1017.6 hPa16.1 kmCalmOvercast
4:58 AM2.2 °C-2 °C74 %1017.9 hPa16.1 kmCalmOvercast
5:58 AM1.9 °C-2.3 °C74 %1017.9 hPa16.1 kmESE (120°)5.6 km/hOvercast
6:58 AM2.7 °C-1.1 °C76 %1018.6 hPa16.1 kmCalmOvercast
7:58 AM3.4 °C0.2 °C80 %1019.3 hPa16.1 kmNNW (330°)1.9 km/hOvercast
8:58 AM4.9 °C0.8 °C75 %1019.6 hPa16.1 kmCalmOvercast
9:58 AM6.5 °C0.5 °C66 %1020 hPa16.1 kmCalmOvercast
10:58 AM8.7 °C-0.1 °C54 %1019.6 hPa16.1 kmNW (320°)1.9 km/hMostly Cloudy
11:58 AM10 °C-2 °C43 %1019 hPa16.1 kmSE (130°)9.3 km/hMostly Cloudy
12:58 PM12.4 °C-1.3 °C39 %1018.6 hPa16.1 kmVariable3.7 km/hPartly Cloudy
1:58 PM13.8 °C-1 °C36 %1018.3 hPa16.1 kmVariable5.6 km/hScattered Clouds
2:58 PM15.2 °C-1 °C33 %1017.9 hPa16.1 kmVariable9.3 km/hPartly Cloudy
3:58 PM14.8 °C-0.5 °C35 %1017.3 hPa16.1 kmNNE (20°)9.3 km/hClear
4:58 PM13.7 °C1.6 °C44 %1017.3 hPa16.1 kmVariable7.4 km/hClear
5:58 PM12.6 °C2.8 °C51 %1017.3 hPa16.1 kmNE (40°)9.3 km/hClear
6:58 PM11.3 °C2.4 °C54 %1017.6 hPa16.1 kmNorth (10°)5.6 km/hClear
7:58 PM9.6 °C2.6 °C62 %1017.9 hPa16.1 kmNNE (20°)3.7 km/hClear
8:58 PM7.2 °C2.3 °C71 %1018.3 hPa16.1 kmENE (60°)1.9 km/hClear
9:58 PM5.3 °C2.1 °C80 %1018.3 hPa16.1 kmNNE (30°)1.9 km/hClear
10:58 PM4.2 °C2 °C86 %1017.9 hPa16.1 kmWest (280°)1.9 km/hClear
11:58 PM3.1 °C1.9 °C92 %1017.6 hPa16.1 kmCalmClear
Hourly data recorded from KDAA, located 0 kilometers away from Rockfish, Virginia







STORIES FROM OUR PARTNERS